OE6JWD-11 Weather Reports


time (UTC)temp
F
wind
direction
speed
knots
gust
knots
rain 1hr
in
rain 24hr
in
rain mn
in
humidity
%
barometer
mb
20210224223029 53 0 0.0 0.9 0.00 0.00 0.00 53 1032.8
20210224222022 54 0 0.0 0.0 0.00 0.00 0.00 51 1032.7
20210224221022 55 0 0.0 1.7 0.00 0.00 0.00 49 1032.7
20210224220027 55 0 0.0 0.9 0.00 0.00 0.00 50 1032.8
20210224215206 55 0 0.0 0.0 0.00 0.00 0.00 50 1032.8
20210224214024 56 0 0.0 0.0 0.00 0.00 0.00 49 1032.8
20210224213022 56 0 0.0 0.0 0.00 0.00 0.00 48 1033.0
20210224212024 56 0 0.0 0.0 0.00 0.00 0.00 48 1033.1
20210224211011 55 0 0.0 0.0 0.00 0.00 0.00 48 1033.0
20210224210018 53 0 0.0 0.0 0.00 0.00 0.00 51 1033.2
20210224205049 55 0 0.0 0.0 0.00 0.00 0.00 50 1033.1
20210224204018 56 0 0.0 0.0 0.00 0.00 0.00 48 1033.0
20210224203021 55 0 0.0 0.0 0.00 0.00 0.00 48 1033.2
20210224202018 54 0 0.0 0.0 0.00 0.00 0.00 50 1033.2
20210224201022 55 0 0.0 0.0 0.00 0.00 0.00 49 1033.3
20210224200011 56 0 0.0 0.0 0.00 0.00 0.00 48 1033.2
20210224195144 55 0 0.0 0.0 0.00 0.00 0.00 49 1033.3
20210224194011 55 0 0.0 0.0 0.00 0.00 0.00 49 1033.4
20210224193023 54 0 0.0 0.0 0.00 0.00 0.00 50 1033.3
20210224192019 54 0 0.0 0.0 0.00 0.00 0.00 51 1033.5
20210224191019 54 0 0.0 0.0 0.00 0.00 0.00 51 1033.6
20210224190024 55 0 0.0 0.0 0.00 0.00 0.00 49 1033.5
20210224185320 55 0 0.0 1.7 0.00 0.00 0.00 48 1033.4
20210224184011 55 0 0.0 0.0 0.00 0.00 0.00 49 1033.7
20210224183036 55 0 0.0 0.0 0.00 0.00 0.00 48 1033.5
20210224182011 56 0 0.0 0.0 0.00 0.00 0.00 47 1033.5
20210224181012 57 0 0.0 1.7 0.00 0.00 0.00 46 1033.6
20210224180027 57 0 0.0 1.7 0.00 0.00 0.00 47 1033.7
20210224175054 57 0 0.0 1.7 0.00 0.00 0.00 48 1033.6
20210224174023 58 0 0.0 1.7 0.00 0.00 0.00 48 1033.7
20210224173019 58 0 0.0 1.7 0.00 0.00 0.00 48 1033.6
20210224172019 59 0 0.0 3.5 0.00 0.00 0.00 48 1033.7
20210224171010 59 185 1.7 3.5 0.00 0.00 0.00 47 1033.6
20210224170019 59 222 1.7 3.5 0.00 0.00 0.00 47 1033.8
20210224165059 59 228 0.9 3.5 0.00 0.00 0.00 46 1033.4
20210224164011 60 196 1.7 3.5 0.00 0.00 0.00 45 1033.6
20210224163018 60 194 0.9 3.5 0.00 0.00 0.00 44 1033.5
20210224162020 61 189 0.9 3.5 0.00 0.00 0.00 44 1033.7
20210224161021 61 192 0.9 2.6 0.00 0.00 0.00 42 1033.5
20210224160025 62 189 0.9 1.7 0.00 0.00 0.00 42 1033.7
20210224155034 62 205 0.9 3.5 0.00 0.00 0.00 42 1033.6
20210224154010 63 0 0.0 3.5 0.00 0.00 0.00 42 1033.4
20210224153018 63 0 0.0 7.0 0.00 0.00 0.00 42 1033.5
20210224152011 64 190 1.7 4.3 0.00 0.00 0.00 41 1033.7
20210224151029 64 195 2.6 4.3 0.00 0.00 0.00 40 1033.6
20210224150012 65 209 1.7 3.5 0.00 0.00 0.00 39 1033.7
20210224145200 65 189 0.9 5.2 0.00 0.00 0.00 40 1033.8
20210224144011 66 209 1.7 3.5 0.00 0.00 0.00 38 1033.5
20210224143021 66 190 0.9 4.3 0.00 0.00 0.00 37 1033.7
20210224142021 67 0 0.0 4.3 0.00 0.00 0.00 35 1033.8
20210224141023 67 197 1.7 5.2 0.00 0.00 0.00 34 1033.9
20210224140022 67 196 0.9 6.1 0.00 0.00 0.00 34 1033.8
20210224135019 67 192 1.7 6.1 0.00 0.00 0.00 34 1033.9
20210224134019 67 225 1.7 5.2 0.00 0.00 0.00 33 1034.1
20210224133045 67 193 1.7 7.0 0.00 0.00 0.00 32 1034.1
20210224132024 67 203 3.5 7.0 0.00 0.00 0.00 34 1034.2
20210224131029 68 199 1.7 6.1 0.00 0.00 0.00 32 1034.3
20210224130021 68 206 1.7 8.7 0.00 0.00 0.00 33 1034.2
20210224125257 67 193 1.7 7.0 0.00 0.00 0.00 37 1034.1
20210224124016 68 189 3.5 7.0 0.00 0.00 0.00 32 1034.3
20210224123040 68 233 1.7 4.3 0.00 0.00 0.00 33 1034.3
20210224122032 67 257 1.7 6.1 0.00 0.00 0.00 32 1034.6
20210224121019 67 207 1.7 7.0 0.00 0.00 0.00 33 1034.6
20210224120019 66 199 2.6 7.8 0.00 0.00 0.00 33 1034.6
20210224115234 67 187 2.6 7.8 0.00 0.00 0.00 34 1034.6
20210224114009 67 182 2.6 6.1 0.00 0.00 0.00 35 1034.8
20210224113017 67 215 1.7 3.5 0.00 0.00 0.00 36 1034.7
20210224112013 67 241 0.9 7.0 0.00 0.00 0.00 34 1035.0
20210224111015 67 216 1.7 3.5 0.00 0.00 0.00 37 1034.9
20210224110019 67 241 0.9 3.5 0.00 0.00 0.00 35 1035.1
20210224105053 67 241 0.9 2.6 0.00 0.00 0.00 36 1035.2
20210224104011 66 0 0.0 3.5 0.00 0.00 0.00 36 1035.2
20210224103018 65 200 0.9 4.3 0.00 0.00 0.00 36 1035.2
20210224102025 65 233 0.9 3.5 0.00 0.00 0.00 39 1035.2
20210224101019 65 198 1.7 3.5 0.00 0.00 0.00 34 1035.4
20210224100020 65 194 1.7 2.6 0.00 0.00 0.00 40 1035.3
20210224095122 64 0 0.0 0.0 0.00 0.00 0.00 39 1035.1
20210224094021 63 0 0.0 0.9 0.00 0.00 0.00 42 1035.2
20210224093026 62 0 0.0 1.7 0.00 0.00 0.00 41 1035.1
20210224092034 60 0 0.0 1.7 0.00 0.00 0.00 43 1035.4
20210224091018 59 0 0.0 0.0 0.00 0.00 0.00 43 1035.1
20210224090024 58 0 0.0 0.0 0.00 0.00 0.00 49 1035.2
20210224085139 58 0 0.0 0.0 0.00 0.00 0.00 44 1035.4
20210224084022 60 0 0.0 0.0 0.00 0.00 0.00 48 1035.3
20210224083012 60 0 0.0 0.0 0.00 0.00 0.00 41 1035.2
20210224082024 60 0 0.0 0.0 0.00 0.00 0.00 35 1035.3
20210224081022 59 0 0.0 0.0 0.00 0.00 0.00 37 1035.3
20210224080020 59 0 0.0 0.0 0.00 0.00 0.00 34 1035.5
20210224075151 58 0 0.0 0.9 0.00 0.00 0.00 35 1035.8
20210224074019 56 0 0.0 1.7 0.00 0.00 0.00 36 1035.5
20210224073020 55 0 0.0 0.0 0.00 0.00 0.00 41 1035.4
20210224072019 55 0 0.0 0.0 0.00 0.00 0.00 39 1035.4
20210224071020 55 0 0.0 0.0 0.00 0.00 0.00 39 1035.6
20210224070020 54 0 0.0 0.0 0.00 0.00 0.00 37 1035.4
20210224065245 56 0 0.0 0.0 0.00 0.00 0.00 36 1035.8
20210224064020 56 0 0.0 0.0 0.00 0.00 0.00 36 1035.6
20210224063020 56 0 0.0 0.0 0.00 0.00 0.00 34 1035.5
20210224062020 56 0 0.0 0.0 0.00 0.00 0.00 36 1035.6
20210224061022 56 0 0.0 0.0 0.00 0.00 0.00 34 1035.3
20210224060017 55 0 0.0 0.0 0.00 0.00 0.00 36 1035.3
20210224055108 53 0 0.0 0.0 0.00 0.00 0.00 37 1035.2
20210224054017 54 0 0.0 0.0 0.00 0.00 0.00 38 1035.2
20210224053022 53 0 0.0 0.9 0.00 0.00 0.00 37 1035.4
20210224052022 53 0 0.0 0.9 0.00 0.00 0.00 38 1035.3
20210224051024 54 0 0.0 0.9 0.00 0.00 0.00 40 1035.2
20210224050025 55 0 0.0 0.9 0.00 0.00 0.00 37 1035.0
20210224045032 54 0 0.0 0.9 0.00 0.00 0.00 38 1035.0
20210224044020 56 0 0.0 1.7 0.00 0.00 0.00 36 1035.2
20210224043020 55 0 0.0 1.7 0.00 0.00 0.00 37 1035.1
20210224042019 54 0 0.0 0.9 0.00 0.00 0.00 39 1035.2
20210224041020 54 0 0.0 0.0 0.00 0.00 0.00 38 1035.0
20210224040029 55 0 0.0 0.0 0.00 0.00 0.00 38 1035.2
20210224035037 55 0 0.0 0.0 0.00 0.00 0.00 39 1035.1
20210224034019 55 0 0.0 0.0 0.00 0.00 0.00 38 1035.2
20210224033022 55 0 0.0 0.0 0.00 0.00 0.00 38 1035.1
20210224032019 55 0 0.0 0.0 0.00 0.00 0.00 38 1035.2
20210224031011 54 0 0.0 0.9 0.00 0.00 0.00 39 1035.2
20210224030022 54 0 0.0 1.7 0.00 0.00 0.00 40 1035.1
20210224025141 53 0 0.0 0.0 0.00 0.00 0.00 41 1035.4
20210224024021 53 0 0.0 0.0 0.00 0.00 0.00 41 1035.3
20210224023021 54 0 0.0 0.9 0.00 0.00 0.00 41 1035.3
20210224022023 56 0 0.0 1.7 0.00 0.00 0.00 37 1035.4
20210224021023 56 0 0.0 1.7 0.00 0.00 0.00 39 1035.3
20210224020022 56 0 0.0 1.7 0.00 0.00 0.00 38 1035.2
20210224015021 56 356 0.9 1.7 0.00 0.00 0.00 37 1035.4
20210224014012 56 0 0.0 1.7 0.00 0.00 0.00 38 1035.5
20210224013024 56 0 0.0 1.7 0.00 0.00 0.00 38 1035.5
20210224012019 56 0 0.0 1.7 0.00 0.00 0.00 38 1035.7
20210224011023 56 0 0.0 1.7 0.00 0.00 0.00 38 1035.6
20210224010030 56 0 0.0 0.9 0.00 0.00 0.00 41 1035.5
20210224005114 56 0 0.0 0.9 0.00 0.00 0.00 40 1035.6
20210224004022 55 0 0.0 0.0 0.00 0.00 0.00 40 1035.7
20210224003018 55 0 0.0 0.0 0.00 0.00 0.00 42 1035.8
20210224002017 54 0 0.0 0.0 0.00 0.00 0.00 40 1035.9
20210224001024 53 0 0.0 0.0 0.00 0.00 0.00 43 1036.0
20210224000020 53 0 0.0 1.7 0.00 0.00 0.00 44 1036.0
20210223235019 55 0 0.0 1.7 0.00 0.00 0.00 46 1036.0
20210223234028 56 0 0.0 1.7 0.00 0.00 0.00 42 1035.8
20210223233021 57 0 0.0 2.6 0.00 0.00 0.00 41 1036.0
20210223232023 57 358 0.9 1.7 0.00 0.00 0.00 41 1035.9
20210223231020 57 0 0.0 1.7 0.00 0.00 0.00 42 1035.8
20210223230024 57 0 0.0 3.5 0.00 0.00 0.00 41 1036.0
20210223225041 56 329 0.9 1.7 0.00 0.00 0.00 44 1035.7
20210223224019 55 0 0.0 1.7 0.00 0.00 0.00 47 1035.6